STARLINK-11666, 63667

Orbit data source: Space-Track

STARLINK-11666, 63667 is a payload satellite owned by SpaceX/Seattle (US) in LEO that was launched on Mon, 28 Apr 2025 UTC via an FALCON 9 launch vehicle from the Air Force Eastern Test Range (AFETR). Payload-class satellites include a variety of spacecraft equipped with specific instruments for various scientific and technological missions. These include communications satellites like Starlink; space stations such as the ISS; scientific satellites like the Hubble; Earth observation satellites from companies like Planet Labs, Umbra, and HawkEye 360; GPS; miniature CubeSats for education and research; and military/defense satellites.

Loading next visibility...
Identifier
63667, 2025-085D
Orbit
LEO
Country
Flag of USUS
Related business
Manufacturer
SpaceX/Seattle
Mission
Operational Commercial Communications
Bus & Motor
STARLINK V2MD, Unknown motor
Mass
960 kg wet, ~910 kg dry
Launch date (UTC)
2025-04-28 (1 year ago)
Launch vehicle
FALCON 9
Launch site
Air Force Eastern Test Range (AFETR)
Object type
Payload
Rocket body
Debris
Shape & HBR
Box + 2 Pan, 18.1 m
Radar Cross Section
36.964 m², Large (>1 m²)

Expand to show TLE details & history
Last TLE update: 2 days ago

TLE from 2 days ago
0 STARLINK-11666
1 63667U 25085D   26170.01710484  .00147093  00000-0  11297-2 0  9995
2 63667  43.0004  28.0405 0001670 264.7267  95.3410 15.70838655 66088
Epoch: 2026-06-19T00:24Z
TLE epoch observation values (Epoch: 2026-06-19T00:24:37.858Z)
Latitude
-0.00001°
Longitude
114.63062°
Altitude
356.375 km
Speed
7.697 km/s
True Right ascension
01h 52m 09s
True Declination
0° 00' 00"
Sunlit
Object was in daylight at epoch
Visualization orbit readout
Latitude
Unknown
Longitude
Unknown
Altitude
Unknown
Speed
Unknown
Apparent Right ascension
Unknown
Apparent Declination
Unknown
Sunlit
N/A
Visualization observer readout
Local Sidereal Time
08:43:01
Azimuth
Unknown
Elevation
Unknown
Doppler factor
Unknown
Orbital elements
Apogee altitude
359.605 km
Perigee altitude
357.355 km
Semi-major axis
6,736.617 km
Eccentricity
0.00017
Inclination
43.0004°
RAAN
28.0405°
Arg. of periapsis
264.7267°
True anomaly
95.36005°
Mean anomaly
95.341°
Eccentric anomaly
95.35053°
Mean motion
3.92537 °/min
Orbital period
91.71 mins
BSTAR
0.0011297
Loading maneuver chart data...
Computing Atmospheric mass density...
Loading historical data...
Loading historical data...
Loading historical data...
Loading historical data...
Loading historical data...
Loading historical data...
Loading historical data...

Documentation

Showing up to 5 results
|